Orbital Elements at Epoch 2459200.5 (2020-Dec-17.0) TDB
Reference: JPL 14 (heliocentric ecliptic J2000)
Element | Value | Uncertainty (1-sigma) | Units |
e | .1406426161137418 | 4.4879e-08 | |
a | 2.146763706670773 | 1.0535e-08 | au |
q | 1.844837242786562 | 1.0148e-07 | au |
i | 1.440447389860005 | 4.6683e-06 | deg |
node | 12.97888498826026 | 0.00019222 | deg |
peri | 9.357147448589631 | 0.00019346 | deg |
M | 312.3367902146708 | 2.5954e-05 | deg |
tp | 2459352.609233723257 (2021-May-18.10923372) | 8.3636e-05 | TDB |
period | 1148.880329021135 3.15 | 8.4567e-06 2.315e-08 | d yr |
n | .3133485628627013 | 2.3065e-09 | deg/d |
Q | 2.448690170554984 | 1.2016e-08 | au |
|
| | Orbit Determination Parameters
Additional Information
|